Showing default

CHUBUSAT 2, 41338

Orbit data source: Space-Track

CHUBUSAT 2, 41338 is a payload satellite owned by Nagoya (JP) in LEO that was launched on Wed, 17 Feb 2016 UTC via an H-IIA 202 launch vehicle from the Tanegashima Space Center (TNSTA). Payload-class satellites include a variety of spacecraft equipped with specific instruments for various scientific and technological missions. These include communications satellites like Starlink; space stations such as the ISS; scientific satellites like the Hubble; Earth observation satellites from companies like Planet Labs, Umbra, and HawkEye 360; GPS; miniature CubeSats for education and research; and military/defense satellites.

Loading next visibility...
Identifier
41338, 2016-012B
Orbit
LEO
Country
Flag of JPJP / JPN
Related business
Manufacturer
Nagoya
Mission
Non-operational Amateur Science
Bus & Motor
Unknown
Mass
50 kg wet, 50 kg dry
Launch date (UTC)
2016-02-17 (10 years ago)
Launch vehicle
H-IIA 202
Launch site
Tanegashima Space Center (TNSTA)
Object type
Payload
Rocket body
Debris
Shape & HBR
Box, 0.3 m
Radar Cross Section
0.480 m², Medium (>0.1 m² and < 1m²)

Expand to show TLE details & history
Last TLE update: 1 day ago

TLE from 1 day ago
0 CHUBUSAT 2
1 41338U 16012B   25258.55019308  .00006041  00000-0  29477-3 0  9995
2 41338  30.9996 318.6107 0010137 158.3874 201.7196 15.16729538526625
Epoch: 2025-09-15T13:12Z
TLE epoch observation values (Epoch: 2025-09-15T13:12:16.682Z)
Latitude
0.00004°
Longitude
125.78802°
Altitude
520.729 km
Speed
7.602 km/s
True Right ascension
21h 14m 26s
True Declination
0° 00' 00"
Sunlit
Object was in full shadow at epoch
Visualization orbit readout
Latitude
Unknown
Longitude
Unknown
Altitude
Unknown
Speed
Unknown
Apparent Right ascension
Unknown
Apparent Declination
Unknown
Sunlit
N/A
Visualization observer readout
Local Sidereal Time
08:24:18
Azimuth
Unknown
Elevation
Unknown
Doppler factor
Unknown
Orbital elements
Apogee altitude
526.577 km
Perigee altitude
512.593 km
Semi-major axis
6,897.722 km
Eccentricity
0.00101
Inclination
30.9996°
RAAN
318.6107°
Arg. of periapsis
158.3874°
True anomaly
201.67666°
Mean anomaly
201.7196°
Eccentric anomaly
201.69813°
Mean motion
3.78865 °/min
Orbital period
95.02 mins
BSTAR
0.00029477
Loading maneuver chart data...
Computing Atmospheric mass density...
Loading historical data...
Loading historical data...
Loading historical data...
Loading historical data...
Loading historical data...
Loading historical data...
Loading historical data...

Documentation

Showing up to 5 results
|